Weather in Liubytske

Ukraine / Zaporizhia Region     47°45′59″N   35°57′24″E
temp.,
°C
wind,
m/s
gust,
m/s
humid.,
%
clouds,
%
prec.,
mm/h
press.,
hPa
HPBL,
m
8 august, mon
mon800:00+22ne34465 0.0 101445
03:00+21ne34390 0.0 101453
06:00+21ene33370 0.0 101530
09:00+29ne34270 0.0 1016368
12:00+34ne56170 0.0 10153459
15:00+35nne77150 0.0 10143862
18:00+34nne77180 0.0 10141501
21:00+26nne5113323 0.0 1015175
9 august, tue
tue900:00+24ene46312 0.0 101578
03:00+23e44280 0.0 101541
06:00+22ene33310 0.0 101539
09:00+30ese34200 0.0 1016373
12:00+35ne56140 0.0 10143729
15:00+36nne76140 0.0 10133904
18:00+35nne661629 0.0 10132171
21:00+27ne511305 0.0 1014191
10 august, wed
wed1000:00+24ene342887 0.0 101355
03:00+23ene3431100 0.0 101365
06:00+22ene4734100 0.0 101399
09:00+30ne4624100 0.0 1013485
12:00+36ene5715100 0.0 10113905
15:00+37ene6714100 0.0 10104197
18:00+34ene4717100 0.0 1009431
21:00+28nne61228100 0.0 1010260
11 august, thu
thu1100:00+27ne51132100 0.0 1010239
03:00+25ne593187 0.0 1011166
06:00+24ne511355 0.0 1012204
09:00+28ene593282 0.0 1012472
12:00+36ene8111816 0.0 10113875
15:00+37e8101460 0.0 10114150
18:00+34e5816100 0.0 1011855
21:00+29ne9163137 0.0 1013677
12 august, fri
fri1200:00+28ne9183588 0.0 1013569
03:00+26ene8153793 0.0 1013560
06:00+24ne7144592 0.0 1014334
09:00+30ene71131100 0.0 1014946
12:00+34e81219100 0.0 10142683
15:00+36ese71215100 0.0 10123693
18:00+34ene6111988 0.0 1012506
21:00+30ene5121977 0.0 1012297